Location: Unspecified
(41.9000°N, 12.4830°E)
Time: 09:13:47
(UTC+02:00)

ISS - Pass Details

Date: 14 September 2017
Orbit: 401 x 407 km, 51.6° (Epoch: 23 September)

Event Time Altitude Azimuth Distance (km) Brightness Sun altitude
Exits shadow 06:09:25 - 309° (NW) 2,234 -0.4 -8.1°
Reaches altitude 10° 06:11:29 10° 323° (NW) 1,473 -1.2 -7.8°
Maximum altitude 06:14:16 24° 20° (NNE) 883 -1.7 -7.3°
Drops below altitude 10° 06:17:03 10° 78° (ENE) 1,469 0.9 -6.7°
Sets 06:19:22 0° 92° (E) 2,327 2.1 -6.3°
